This is the latest recevied weather packets stored in our database for station/object KG4AGD. If no packets are shown the sender has not sent any weather packets the latest 1 day(s).
| Time | Temp. | Humidity | Pressure | Rain* | Wind** | Luminosity | Snow |
|---|---|---|---|---|---|---|---|
| 1778060540 | 15.56° C | 94% | 1016.2 hPa | 0 mm | 2.68 m/s, 212° | - | - |
| 1778060238 | 16.11° C | 93% | 1016.2 hPa | 0 mm | 1.34 m/s, 224° | - | - |
| 1778059936 | 16.11° C | 93% | 1016.2 hPa | 0 mm | 1.79 m/s, 192° | - | - |
| 1778059634 | 16.11° C | 93% | 1016.2 hPa | 0 mm | 1.34 m/s, 224° | - | - |
| 1778059331 | 16.11° C | 93% | 1015.9 hPa | 0 mm | 1.79 m/s, 211° | - | - |
| 1778059029 | 16.11° C | 93% | 1016.2 hPa | 0 mm | 1.79 m/s, 220° | - | - |
| 1778058727 | 16.11° C | 93% | 1016.2 hPa | 0 mm | 1.79 m/s, 196° | - | - |
| 1778058424 | 16.11° C | 93% | 1015.9 hPa | 0 mm | 1.34 m/s, 212° | - | - |
| 1778058122 | 16.11° C | 93% | 1015.9 hPa | 0 mm | 1.79 m/s, 187° | - | - |
| 1778057820 | 16.11° C | 93% | 1016.2 hPa | 0 mm | 2.24 m/s, 231° | - | - |
| 1778057518 | 16.11° C | 93% | 1016.2 hPa | 0 mm | 1.79 m/s, 182° | - | - |
| 1778057215 | 15.56° C | 93% | 1016.2 hPa | 0 mm | 2.24 m/s, 163° | - | - |
| 1778056913 | 15.56° C | 93% | 1016.2 hPa | 0 mm | 0.89 m/s, 183° | - | - |
| 1778056611 | 15.56° C | 93% | 1016.2 hPa | 0 mm | 0.89 m/s, 208° | - | - |
| 1778056309 | 15.56° C | 94% | 1015.9 hPa | 0 mm | 1.34 m/s, 185° | - | - |
| 1778056007 | 15.56° C | 94% | 1015.9 hPa | 0 mm | 1.34 m/s, 150° | - | - |
| 1778055704 | 15.56° C | 94% | 1015.9 hPa | 0 mm | 1.79 m/s, 172° | - | - |
| 1778055402 | 15.56° C | 94% | 1015.9 hPa | 0 mm | 1.34 m/s, 187° | - | - |
| 1778055100 | 15.56° C | 94% | 1015.9 hPa | 0 mm | 0.89 m/s, 143° | - | - |
| 1778054797 | 15.56° C | 94% | 1015.9 hPa | 0 mm | 0.89 m/s, 192° | - | - |
| 1778054495 | 15.56° C | 94% | 1015.9 hPa | 0 mm | 2.68 m/s, 184° | - | - |
| 1778054193 | 15.56° C | 94% | 1015.9 hPa | 0 mm | 1.34 m/s, 196° | - | - |
| 1778053891 | 15.56° C | 94% | 1016.2 hPa | 0 mm | 0.89 m/s, 187° | - | - |
| 1778053589 | 15.56° C | 94% | 1016.2 hPa | 0 mm | 1.34 m/s, 198° | - | - |
| 1778053287 | 15.56° C | 94% | 1016.2 hPa | 0 mm | 2.68 m/s, 152° | - | - |
* Rain since midnight (hover to see other rain measurements)
** Current wind speed in m/s (hover to see current wind gust speed)